#datetime,building,power
2023-04-19T00:01:00,pth,3.60
2023-04-19T00:02:00,pth,1.20
2023-04-19T00:03:00,pth,1.20
2023-04-19T00:05:00,pth,3.60
2023-04-19T00:06:00,pth,3.60
2023-04-19T00:07:00,pth,2.40
2023-04-19T00:08:00,pth,2.40
2023-04-19T00:09:00,pth,2.40
2023-04-19T00:11:00,pth,4.80
2023-04-19T00:13:00,pth,6.00
2023-04-19T00:15:00,pth,3.60
2023-04-19T00:17:00,pth,2.40
2023-04-19T00:19:00,pth,3.60
2023-04-19T00:21:00,pth,3.60
2023-04-19T00:22:00,pth,1.20
2023-04-19T00:24:00,pth,3.60
2023-04-19T00:25:00,pth,1.20
2023-04-19T00:27:00,pth,3.60
2023-04-19T00:28:00,pth,1.20
2023-04-19T00:30:00,pth,3.60
2023-04-19T00:32:00,pth,3.60
2023-04-19T00:34:00,pth,4.80
2023-04-19T00:36:00,pth,4.80
2023-04-19T00:38:00,pth,4.80
2023-04-19T00:40:00,pth,4.80
2023-04-19T00:41:00,pth,2.40
2023-04-19T00:43:00,pth,2.40
2023-04-19T00:45:00,pth,3.60
2023-04-19T00:46:00,pth,1.20
2023-04-19T00:48:00,pth,2.40
2023-04-19T00:50:00,pth,3.60
2023-04-19T00:51:00,pth,1.20
2023-04-19T00:53:00,pth,2.40
2023-04-19T00:55:00,pth,2.40
2023-04-19T00:57:00,pth,2.40
2023-04-19T00:58:00,pth,2.40
2023-04-19T01:00:00,pth,4.80
2023-04-19T01:02:00,pth,4.80
2023-04-19T01:04:00,pth,6.00
2023-04-19T01:05:00,pth,2.40
2023-04-19T01:07:00,pth,3.60
2023-04-19T01:09:00,pth,3.60
2023-04-19T01:11:00,pth,2.40
2023-04-19T01:12:00,pth,1.20
2023-04-19T01:14:00,pth,3.60
2023-04-19T01:16:00,pth,2.40
2023-04-19T01:18:00,pth,3.60
2023-04-19T01:19:00,pth,1.20
2023-04-19T01:21:00,pth,2.40
2023-04-19T01:22:00,pth,1.20
2023-04-19T01:24:00,pth,4.80
2023-04-19T01:26:00,pth,4.80
2023-04-19T01:27:00,pth,2.40
2023-04-19T01:28:00,pth,2.40
2023-04-19T01:30:00,pth,6.00
2023-04-19T01:31:00,pth,2.40
2023-04-19T01:32:00,pth,2.40
2023-04-19T01:34:00,pth,3.60
2023-04-19T01:36:00,pth,3.60
2023-04-19T01:37:00,pth,2.40
2023-04-19T01:38:00,pth,1.20
2023-04-19T01:40:00,pth,3.60
2023-04-19T01:42:00,pth,2.40
2023-04-19T01:43:00,pth,2.40
2023-04-19T01:45:00,pth,2.40
2023-04-19T01:47:00,pth,2.40
2023-04-19T01:48:00,pth,2.40
2023-04-19T01:50:00,pth,4.80
2023-04-19T01:51:00,pth,2.40
2023-04-19T01:53:00,pth,4.80
2023-04-19T01:54:00,pth,2.40
2023-04-19T01:56:00,pth,3.60
2023-04-19T01:57:00,pth,2.40
2023-04-19T01:59:00,pth,2.40
2023-04-19T02:01:00,pth,3.60
2023-04-19T02:02:00,pth,1.20
2023-04-19T02:04:00,pth,2.40
2023-04-19T02:06:00,pth,2.40
2023-04-19T02:08:00,pth,3.60
2023-04-19T02:10:00,pth,2.40
2023-04-19T02:12:00,pth,3.60
2023-04-19T02:14:00,pth,4.80
2023-04-19T02:16:00,pth,4.80
2023-04-19T02:17:00,pth,1.20
2023-04-19T02:18:00,pth,2.40
2023-04-19T02:20:00,pth,4.80
2023-04-19T02:21:00,pth,2.40
2023-04-19T02:23:00,pth,3.60
2023-04-19T02:25:00,pth,2.40
2023-04-19T02:26:00,pth,1.20
2023-04-19T02:28:00,pth,2.40
2023-04-19T02:29:00,pth,1.20
2023-04-19T02:31:00,pth,2.40
2023-04-19T02:32:00,pth,1.20
2023-04-19T02:33:00,pth,2.40
2023-04-19T02:35:00,pth,2.40
2023-04-19T02:36:00,pth,1.20
2023-04-19T02:37:00,pth,1.20
2023-04-19T02:39:00,pth,3.60
2023-04-19T02:41:00,pth,4.80
2023-04-19T02:43:00,pth,3.60
2023-04-19T02:44:00,pth,2.40
2023-04-19T02:46:00,pth,4.80
2023-04-19T02:48:00,pth,4.80
2023-04-19T02:49:00,pth,1.20
2023-04-19T02:51:00,pth,2.40
2023-04-19T02:52:00,pth,2.40
2023-04-19T02:54:00,pth,2.40
2023-04-19T02:55:00,pth,1.20
2023-04-19T02:57:00,pth,2.40
2023-04-19T02:59:00,pth,3.60
2023-04-19T03:01:00,pth,2.40
2023-04-19T03:02:00,pth,1.20
2023-04-19T03:03:00,pth,2.40
2023-04-19T03:05:00,pth,4.80
2023-04-19T03:07:00,pth,3.60
2023-04-19T03:08:00,pth,2.40
2023-04-19T03:10:00,pth,4.80
2023-04-19T03:12:00,pth,4.80
2023-04-19T03:14:00,pth,3.60
2023-04-19T03:16:00,pth,2.40
2023-04-19T03:18:00,pth,2.40
2023-04-19T03:19:00,pth,1.20
2023-04-19T03:21:00,pth,2.40
2023-04-19T03:23:00,pth,3.60
2023-04-19T03:25:00,pth,2.40
2023-04-19T03:26:00,pth,1.20
2023-04-19T03:27:00,pth,1.20
2023-04-19T03:29:00,pth,3.60
2023-04-19T03:30:00,pth,2.40
2023-04-19T03:31:00,pth,2.40
2023-04-19T03:33:00,pth,4.80
2023-04-19T03:35:00,pth,4.80
2023-04-19T03:36:00,pth,2.40
2023-04-19T03:39:00,pth,4.80
2023-04-19T03:40:00,pth,2.40
2023-04-19T03:41:00,pth,1.20
2023-04-19T03:43:00,pth,2.40
2023-04-19T03:44:00,pth,1.20
2023-04-19T03:46:00,pth,2.40
2023-04-19T03:48:00,pth,3.60
2023-04-19T03:50:00,pth,2.40
2023-04-19T03:52:00,pth,2.40
2023-04-19T03:53:00,pth,2.40
2023-04-19T03:55:00,pth,4.80
2023-04-19T03:57:00,pth,3.60
2023-04-19T03:59:00,pth,4.80
2023-04-19T04:00:00,pth,2.40
2023-04-19T04:02:00,pth,3.60
2023-04-19T04:03:00,pth,1.20
2023-04-19T04:05:00,pth,2.40
2023-04-19T04:06:00,pth,1.20
2023-04-19T04:08:00,pth,2.40
2023-04-19T04:09:00,pth,1.20
2023-04-19T04:11:00,pth,2.40
2023-04-19T04:13:00,pth,2.40
2023-04-19T04:14:00,pth,1.20
2023-04-19T04:16:00,pth,2.40
2023-04-19T04:18:00,pth,4.80
2023-04-19T04:20:00,pth,3.60
2023-04-19T04:21:00,pth,2.40
2023-04-19T04:22:00,pth,2.40
2023-04-19T04:24:00,pth,3.60
2023-04-19T04:25:00,pth,2.40
2023-04-19T04:27:00,pth,3.60
2023-04-19T04:28:00,pth,1.20
2023-04-19T04:30:00,pth,2.40
2023-04-19T04:31:00,pth,1.20
2023-04-19T04:32:00,pth,1.20
2023-04-19T04:34:00,pth,2.40
2023-04-19T04:36:00,pth,1.20
2023-04-19T04:37:00,pth,1.20
2023-04-19T04:39:00,pth,2.40
2023-04-19T04:41:00,pth,3.60
2023-04-19T04:42:00,pth,2.40
2023-04-19T04:44:00,pth,3.60
2023-04-19T04:45:00,pth,2.40
2023-04-19T04:46:00,pth,2.40
2023-04-19T04:48:00,pth,3.60
2023-04-19T04:50:00,pth,4.80
2023-04-19T04:52:00,pth,1.20
2023-04-19T04:54:00,pth,2.40
2023-04-19T04:56:00,pth,2.40
2023-04-19T04:58:00,pth,2.40
2023-04-19T05:00:00,pth,1.20
2023-04-19T05:02:00,pth,2.40
2023-04-19T05:03:00,pth,1.20
2023-04-19T05:05:00,pth,3.60
2023-04-19T05:06:00,pth,2.40
2023-04-19T05:08:00,pth,3.60
2023-04-19T05:09:00,pth,2.40
2023-04-19T05:11:00,pth,3.60
2023-04-19T05:12:00,pth,2.40
2023-04-19T05:13:00,pth,2.40
2023-04-19T05:15:00,pth,2.40
2023-04-19T05:17:00,pth,2.40
2023-04-19T05:19:00,pth,1.20
2023-04-19T05:20:00,pth,1.20
2023-04-19T05:22:00,pth,1.20
2023-04-19T05:24:00,pth,2.40
2023-04-19T05:25:00,pth,1.20
2023-04-19T05:27:00,pth,2.40
2023-04-19T05:28:00,pth,1.20
2023-04-19T05:30:00,pth,4.80
2023-04-19T05:31:00,pth,2.40
2023-04-19T05:33:00,pth,3.60
2023-04-19T05:34:00,pth,2.40
2023-04-19T05:36:00,pth,3.60
2023-04-19T05:37:00,pth,2.40
2023-04-19T05:39:00,pth,3.60
2023-04-19T05:40:00,pth,2.40
2023-04-19T05:41:00,pth,1.20
2023-04-19T05:43:00,pth,3.60
2023-04-19T05:45:00,pth,3.60
2023-04-19T05:46:00,pth,1.20
2023-04-19T05:48:00,pth,3.60
2023-04-19T05:50:00,pth,2.40
2023-04-19T05:51:00,pth,3.60
2023-04-19T05:53:00,pth,4.80
2023-04-19T05:54:00,pth,2.40
2023-04-19T05:55:00,pth,2.40
2023-04-19T05:57:00,pth,6.00
2023-04-19T05:59:00,pth,4.80
2023-04-19T06:00:00,pth,2.40
2023-04-19T06:02:00,pth,3.60
2023-04-19T06:03:00,pth,2.40
2023-04-19T06:05:00,pth,2.40
2023-04-19T06:06:00,pth,2.40
2023-04-19T06:08:00,pth,2.40
2023-04-19T06:10:00,pth,3.60
2023-04-19T06:11:00,pth,1.20
2023-04-19T06:13:00,pth,3.60
2023-04-19T06:15:00,pth,4.80
2023-04-19T06:17:00,pth,4.80
2023-04-19T06:19:00,pth,6.00
2023-04-19T06:20:00,pth,2.40
2023-04-19T06:22:00,pth,6.00
2023-04-19T06:24:00,pth,4.80
2023-04-19T06:25:00,pth,2.40
2023-04-19T06:27:00,pth,4.80
2023-04-19T06:28:00,pth,1.20
2023-04-19T06:30:00,pth,3.60
2023-04-19T06:31:00,pth,2.40
2023-04-19T06:33:00,pth,3.60
2023-04-19T06:34:00,pth,1.20
2023-04-19T06:36:00,pth,3.60
2023-04-19T06:38:00,pth,3.60
2023-04-19T06:40:00,pth,3.60
2023-04-19T06:41:00,pth,3.60
2023-04-19T06:43:00,pth,4.80
2023-04-19T06:45:00,pth,4.80
2023-04-19T06:47:00,pth,4.80
2023-04-19T06:48:00,pth,3.60
2023-04-19T06:49:00,pth,2.40
2023-04-19T06:51:00,pth,3.60
2023-04-19T06:52:00,pth,1.20
2023-04-19T06:54:00,pth,3.60
2023-04-19T06:55:00,pth,1.20
2023-04-19T06:56:00,pth,1.20
2023-04-19T06:58:00,pth,3.60
2023-04-19T07:00:00,pth,2.40
2023-04-19T07:02:00,pth,3.60
2023-04-19T07:04:00,pth,4.80
2023-04-19T07:06:00,pth,4.80
2023-04-19T07:07:00,pth,2.40
2023-04-19T07:09:00,pth,6.00
2023-04-19T07:10:00,pth,3.60
2023-04-19T07:11:00,pth,2.40
2023-04-19T07:13:00,pth,4.80
2023-04-19T07:14:00,pth,2.40
2023-04-19T07:16:00,pth,3.60
2023-04-19T07:17:00,pth,2.40
2023-04-19T07:19:00,pth,3.60
2023-04-19T07:21:00,pth,2.40
2023-04-19T07:22:00,pth,2.40
2023-04-19T07:24:00,pth,2.40
2023-04-19T07:26:00,pth,3.60
2023-04-19T07:28:00,pth,3.60
2023-04-19T07:30:00,pth,6.00
2023-04-19T07:32:00,pth,4.80
2023-04-19T07:34:00,pth,6.00
2023-04-19T07:35:00,pth,2.40
2023-04-19T07:37:00,pth,4.80
2023-04-19T07:38:00,pth,2.40
2023-04-19T07:39:00,pth,2.40
2023-04-19T07:41:00,pth,3.60
2023-04-19T07:43:00,pth,2.40
2023-04-19T07:44:00,pth,2.40
2023-04-19T07:46:00,pth,2.40
2023-04-19T07:47:00,pth,1.20
2023-04-19T07:48:00,pth,2.40
2023-04-19T07:50:00,pth,2.40
2023-04-19T07:52:00,pth,3.60
2023-04-19T07:53:00,pth,1.20
2023-04-19T07:54:00,pth,2.40
2023-04-19T07:56:00,pth,4.80
2023-04-19T07:57:00,pth,2.40
2023-04-19T07:58:00,pth,2.40
2023-04-19T08:00:00,pth,4.80
2023-04-19T08:01:00,pth,2.40
2023-04-19T08:03:00,pth,6.00
2023-04-19T08:04:00,pth,2.40
2023-04-19T08:06:00,pth,2.40
2023-04-19T08:08:00,pth,2.40
2023-04-19T08:09:00,pth,1.20
2023-04-19T08:10:00,pth,1.20
2023-04-19T08:12:00,pth,2.40
2023-04-19T08:14:00,pth,3.60
2023-04-19T08:15:00,pth,1.20
2023-04-19T08:17:00,pth,2.40
2023-04-19T08:19:00,pth,4.80
2023-04-19T08:20:00,pth,2.40
2023-04-19T08:21:00,pth,2.40
2023-04-19T08:23:00,pth,4.80
2023-04-19T08:24:00,pth,2.40
2023-04-19T08:26:00,pth,4.80
2023-04-19T08:28:00,pth,4.80
2023-04-19T08:30:00,pth,2.40
2023-04-19T08:32:00,pth,3.60
2023-04-19T08:34:00,pth,2.40
2023-04-19T08:36:00,pth,2.40
2023-04-19T08:39:00,pth,3.60
2023-04-19T08:40:00,pth,2.40
2023-04-19T08:42:00,pth,4.80
2023-04-19T08:44:00,pth,3.60
2023-04-19T08:46:00,pth,4.80
2023-04-19T08:48:00,pth,6.00
2023-04-19T08:50:00,pth,4.80
2023-04-19T08:51:00,pth,2.40
2023-04-19T08:53:00,pth,3.60
2023-04-19T08:55:00,pth,3.60
2023-04-19T08:57:00,pth,2.40
2023-04-19T08:59:00,pth,3.60
2023-04-19T09:01:00,pth,2.40
2023-04-19T09:03:00,pth,3.60
2023-04-19T09:04:00,pth,1.20
2023-04-19T09:06:00,pth,3.60
2023-04-19T09:07:00,pth,2.40
2023-04-19T09:08:00,pth,2.40
2023-04-19T09:10:00,pth,4.80
2023-04-19T09:12:00,pth,4.80
2023-04-19T09:13:00,pth,2.40
2023-04-19T09:15:00,pth,4.80
2023-04-19T09:16:00,pth,1.20
2023-04-19T09:18:00,pth,4.80
2023-04-19T09:19:00,pth,1.20
2023-04-19T09:21:00,pth,2.40
2023-04-19T09:23:00,pth,3.60
2023-04-19T09:25:00,pth,2.40
2023-04-19T09:27:00,pth,3.60
2023-04-19T09:28:00,pth,1.20
2023-04-19T09:30:00,pth,2.40
2023-04-19T09:31:00,pth,1.20
2023-04-19T09:33:00,pth,4.80
2023-04-19T09:35:00,pth,4.80
2023-04-19T09:37:00,pth,4.80
2023-04-19T09:39:00,pth,4.80
2023-04-19T09:40:00,pth,2.40
2023-04-19T09:42:00,pth,3.60
2023-04-19T09:44:00,pth,2.40
2023-04-19T09:46:00,pth,2.40
2023-04-19T09:48:00,pth,1.20
2023-04-19T09:50:00,pth,2.40
2023-04-19T09:51:00,pth,1.20
2023-04-19T09:53:00,pth,1.20
2023-04-19T09:55:00,pth,2.40
2023-04-19T09:56:00,pth,1.20
2023-04-19T09:58:00,pth,3.60
2023-04-19T10:00:00,pth,4.80
2023-04-19T10:02:00,pth,3.60
2023-04-19T10:04:00,pth,3.60
2023-04-19T10:06:00,pth,3.60
2023-04-19T10:07:00,pth,1.20
2023-04-19T10:09:00,pth,2.40
2023-04-19T10:10:00,pth,1.20
2023-04-19T10:12:00,pth,2.40
2023-04-19T10:13:00,pth,1.20
2023-04-19T10:15:00,pth,1.20
2023-04-19T10:16:00,pth,1.20
2023-04-19T10:18:00,pth,1.20
2023-04-19T10:20:00,pth,3.60
2023-04-19T10:22:00,pth,3.60
2023-04-19T10:23:00,pth,2.40
2023-04-19T10:24:00,pth,1.20
2023-04-19T10:26:00,pth,3.60
2023-04-19T10:27:00,pth,1.20
2023-04-19T10:29:00,pth,3.60
2023-04-19T10:31:00,pth,2.40
2023-04-19T10:33:00,pth,2.40
2023-04-19T10:35:00,pth,2.40
2023-04-19T10:37:00,pth,1.20
2023-04-19T10:39:00,pth,1.20
2023-04-19T10:40:00,pth,1.20
2023-04-19T10:42:00,pth,1.20
2023-04-19T10:44:00,pth,3.60
2023-04-19T10:45:00,pth,2.40
2023-04-19T10:47:00,pth,3.60
2023-04-19T10:49:00,pth,3.60
2023-04-19T10:51:00,pth,3.60
2023-04-19T10:53:00,pth,2.40
2023-04-19T10:55:00,pth,1.20
2023-04-19T10:57:00,pth,2.40
2023-04-19T10:58:00,pth,1.20
2023-04-19T10:59:00,pth,1.20
2023-04-19T11:01:00,pth,2.40
2023-04-19T11:03:00,pth,2.40
2023-04-19T11:04:00,pth,1.20
2023-04-19T11:06:00,pth,2.40
2023-04-19T11:07:00,pth,1.20
2023-04-19T11:08:00,pth,2.40
2023-04-19T11:10:00,pth,3.60
2023-04-19T11:11:00,pth,2.40
2023-04-19T11:13:00,pth,4.80
2023-04-19T11:14:00,pth,1.20
2023-04-19T11:16:00,pth,3.60
2023-04-19T11:17:00,pth,1.20
2023-04-19T11:20:00,pth,2.40
2023-04-19T11:21:00,pth,1.20
2023-04-19T11:23:00,pth,1.20
2023-04-19T11:24:00,pth,1.20
2023-04-19T11:26:00,pth,2.40
2023-04-19T11:28:00,pth,1.20
2023-04-19T11:30:00,pth,3.60
2023-04-19T11:32:00,pth,3.60
2023-04-19T11:33:00,pth,1.20
2023-04-19T11:35:00,pth,4.80
2023-04-19T11:37:00,pth,3.60
2023-04-19T11:38:00,pth,2.40
2023-04-19T11:39:00,pth,2.40
2023-04-19T11:40:00,pth,1.20
2023-04-19T11:42:00,pth,2.40
2023-04-19T11:44:00,pth,2.40
2023-04-19T11:46:00,pth,1.20
2023-04-19T11:48:00,pth,2.40
2023-04-19T11:50:00,pth,1.20
2023-04-19T11:51:00,pth,1.20
2023-04-19T11:53:00,pth,1.20
2023-04-19T11:55:00,pth,2.40
2023-04-19T11:57:00,pth,3.60
2023-04-19T11:59:00,pth,3.60
2023-04-19T12:00:00,pth,2.40
2023-04-19T12:02:00,pth,2.40
2023-04-19T12:04:00,pth,3.60
2023-04-19T12:06:00,pth,2.40
2023-04-19T12:08:00,pth,1.20
2023-04-19T12:10:00,pth,2.40
2023-04-19T12:12:00,pth,1.20
2023-04-19T12:14:00,pth,1.20
2023-04-19T12:15:00,pth,1.20
2023-04-19T12:16:00,pth,1.20
2023-04-19T12:18:00,pth,1.20
2023-04-19T12:20:00,pth,3.60
2023-04-19T12:22:00,pth,3.60
2023-04-19T12:23:00,pth,2.40
2023-04-19T12:25:00,pth,3.60
2023-04-19T12:26:00,pth,1.20
2023-04-19T12:27:00,pth,1.20
2023-04-19T12:29:00,pth,3.60
2023-04-19T12:31:00,pth,1.20
2023-04-19T12:33:00,pth,1.20
2023-04-19T12:35:00,pth,1.20
2023-04-19T12:37:00,pth,2.40
2023-04-19T12:38:00,pth,2.40
2023-04-19T12:39:00,pth,2.40
2023-04-19T12:41:00,pth,1.20
2023-04-19T12:43:00,pth,2.40
2023-04-19T12:46:00,pth,3.60
2023-04-19T12:48:00,pth,3.60
2023-04-19T12:49:00,pth,1.20
2023-04-19T12:50:00,pth,2.40
2023-04-19T12:52:00,pth,3.60
2023-04-19T12:53:00,pth,2.40
2023-04-19T12:54:00,pth,1.20
2023-04-19T12:56:00,pth,2.40
2023-04-19T12:58:00,pth,1.20
2023-04-19T13:00:00,pth,2.40
2023-04-19T13:01:00,pth,1.20
2023-04-19T13:03:00,pth,3.60
2023-04-19T13:04:00,pth,1.20
2023-04-19T13:06:00,pth,1.20
2023-04-19T13:08:00,pth,3.60
2023-04-19T13:10:00,pth,2.40
2023-04-19T13:12:00,pth,3.60
2023-04-19T13:13:00,pth,1.20
2023-04-19T13:15:00,pth,3.60
2023-04-19T13:17:00,pth,2.40
2023-04-19T13:18:00,pth,2.40
2023-04-19T13:19:00,pth,1.20
2023-04-19T13:21:00,pth,1.20
2023-04-19T13:23:00,pth,1.20
2023-04-19T13:25:00,pth,1.20
2023-04-19T13:26:00,pth,1.20
2023-04-19T13:28:00,pth,1.20
2023-04-19T13:30:00,pth,1.20
2023-04-19T13:32:00,pth,1.20
2023-04-19T13:34:00,pth,1.20
2023-04-19T13:36:00,pth,2.40
2023-04-19T13:37:00,pth,2.40
2023-04-19T13:38:00,pth,1.20
2023-04-19T13:40:00,pth,3.60
2023-04-19T13:42:00,pth,3.60
2023-04-19T13:43:00,pth,1.20
2023-04-19T13:45:00,pth,3.60
2023-04-19T13:46:00,pth,1.20
2023-04-19T13:48:00,pth,1.20
2023-04-19T13:49:00,pth,1.20
2023-04-19T13:51:00,pth,1.20
2023-04-19T13:53:00,pth,2.40
2023-04-19T13:55:00,pth,1.20
2023-04-19T13:56:00,pth,2.40
2023-04-19T13:58:00,pth,1.20
2023-04-19T14:00:00,pth,2.40
2023-04-19T14:03:00,pth,3.60
2023-04-19T14:04:00,pth,2.40
2023-04-19T14:06:00,pth,3.60
2023-04-19T14:08:00,pth,3.60
2023-04-19T14:09:00,pth,1.20
2023-04-19T14:10:00,pth,2.40
2023-04-19T14:12:00,pth,1.20
2023-04-19T14:13:00,pth,1.20
2023-04-19T14:15:00,pth,2.40
2023-04-19T14:17:00,pth,2.40
2023-04-19T14:19:00,pth,1.20
2023-04-19T14:21:00,pth,1.20
2023-04-19T14:22:00,pth,1.20
2023-04-19T14:24:00,pth,2.40
2023-04-19T14:26:00,pth,1.20
2023-04-19T14:28:00,pth,2.40
2023-04-19T14:29:00,pth,2.40
2023-04-19T14:31:00,pth,3.60
2023-04-19T14:33:00,pth,4.80
2023-04-19T14:35:00,pth,2.40
2023-04-19T14:37:00,pth,3.60
2023-04-19T14:38:00,pth,1.20
2023-04-19T14:40:00,pth,1.20
2023-04-19T14:42:00,pth,1.20
2023-04-19T14:44:00,pth,2.40
2023-04-19T14:46:00,pth,1.20
2023-04-19T14:48:00,pth,2.40
2023-04-19T14:49:00,pth,1.20
2023-04-19T14:50:00,pth,1.20
2023-04-19T14:52:00,pth,1.20
2023-04-19T14:53:00,pth,1.20
2023-04-19T14:54:00,pth,2.40
2023-04-19T14:55:00,pth,3.60
2023-04-19T14:57:00,pth,3.60
2023-04-19T14:59:00,pth,3.60
2023-04-19T15:01:00,pth,3.60
2023-04-19T15:02:00,pth,2.40
2023-04-19T15:04:00,pth,2.40
2023-04-19T15:06:00,pth,1.20
2023-04-19T15:07:00,pth,2.40
2023-04-19T15:09:00,pth,1.20
2023-04-19T15:10:00,pth,1.20
2023-04-19T15:12:00,pth,2.40
2023-04-19T15:13:00,pth,1.20
2023-04-19T15:15:00,pth,1.20
2023-04-19T15:17:00,pth,3.60
2023-04-19T15:19:00,pth,2.40
2023-04-19T15:21:00,pth,3.60
2023-04-19T15:22:00,pth,2.40
2023-04-19T15:24:00,pth,4.80
2023-04-19T15:25:00,pth,3.60
2023-04-19T15:27:00,pth,4.80
2023-04-19T15:29:00,pth,2.40
2023-04-19T15:30:00,pth,1.20
2023-04-19T15:32:00,pth,1.20
2023-04-19T15:33:00,pth,1.20
2023-04-19T15:35:00,pth,2.40
2023-04-19T15:37:00,pth,2.40
2023-04-19T15:39:00,pth,1.20
2023-04-19T15:41:00,pth,2.40
2023-04-19T15:43:00,pth,1.20
2023-04-19T15:45:00,pth,6.00
2023-04-19T15:47:00,pth,14.40
2023-04-19T15:49:00,pth,14.40
2023-04-19T15:51:00,pth,15.60
2023-04-19T15:53:00,pth,14.40
2023-04-19T15:55:00,pth,15.60
2023-04-19T15:57:00,pth,15.60
2023-04-19T15:59:00,pth,13.20
2023-04-19T16:01:00,pth,13.20
2023-04-19T16:02:00,pth,7.20
2023-04-19T16:03:00,pth,6.00
2023-04-19T16:05:00,pth,13.20
2023-04-19T16:06:00,pth,7.20
2023-04-19T16:08:00,pth,12.00
2023-04-19T16:09:00,pth,7.20
2023-04-19T16:10:00,pth,6.00
2023-04-19T16:12:00,pth,14.40
2023-04-19T16:13:00,pth,6.00
2023-04-19T16:15:00,pth,14.40
2023-04-19T16:17:00,pth,10.80
2023-04-19T16:18:00,pth,7.20
2023-04-19T16:20:00,pth,13.20
2023-04-19T16:22:00,pth,12.00
2023-04-19T16:23:00,pth,6.00
2023-04-19T16:25:00,pth,10.80
2023-04-19T16:26:00,pth,6.00
2023-04-19T16:28:00,pth,10.80
2023-04-19T16:30:00,pth,7.20
2023-04-19T16:31:00,pth,7.20
2023-04-19T16:33:00,pth,8.40
2023-04-19T16:34:00,pth,7.20
2023-04-19T16:36:00,pth,8.40
2023-04-19T16:38:00,pth,8.40
2023-04-19T16:40:00,pth,9.60
2023-04-19T16:42:00,pth,8.40
2023-04-19T16:43:00,pth,1.20
2023-04-19T16:44:00,pth,2.40
2023-04-19T16:46:00,pth,4.80
2023-04-19T16:48:00,pth,4.80
2023-04-19T16:50:00,pth,8.40
2023-04-19T16:51:00,pth,4.80
2023-04-19T16:53:00,pth,7.20
2023-04-19T16:55:00,pth,7.20
2023-04-19T16:56:00,pth,3.60
2023-04-19T16:58:00,pth,7.20
2023-04-19T17:00:00,pth,7.20
2023-04-19T17:02:00,pth,8.40
2023-04-19T17:04:00,pth,6.00
2023-04-19T17:05:00,pth,1.20
2023-04-19T17:07:00,pth,2.40
2023-04-19T17:08:00,pth,1.20
2023-04-19T17:09:00,pth,2.40
2023-04-19T17:11:00,pth,2.40
2023-04-19T17:12:00,pth,2.40
2023-04-19T17:14:00,pth,4.80
2023-04-19T17:16:00,pth,3.60
2023-04-19T17:18:00,pth,4.80
2023-04-19T17:20:00,pth,7.20
2023-04-19T17:22:00,pth,3.60
2023-04-19T17:23:00,pth,1.20
2023-04-19T17:25:00,pth,3.60
2023-04-19T17:27:00,pth,3.60
2023-04-19T17:28:00,pth,3.60
2023-04-19T17:30:00,pth,3.60
2023-04-19T17:31:00,pth,1.20
2023-04-19T17:33:00,pth,2.40
2023-04-19T17:35:00,pth,2.40
2023-04-19T17:36:00,pth,7.20
2023-04-19T17:37:00,pth,7.20
2023-04-19T17:39:00,pth,13.20
2023-04-19T17:41:00,pth,15.60
2023-04-19T17:43:00,pth,16.80
2023-04-19T17:45:00,pth,16.80
2023-04-19T17:47:00,pth,15.60
2023-04-19T17:49:00,pth,16.80
2023-04-19T17:50:00,pth,7.20
2023-04-19T17:52:00,pth,15.60
2023-04-19T17:53:00,pth,7.20
2023-04-19T17:54:00,pth,7.20
2023-04-19T17:55:00,pth,7.20
2023-04-19T17:57:00,pth,13.20
2023-04-19T17:58:00,pth,7.20
2023-04-19T17:59:00,pth,6.00
2023-04-19T18:01:00,pth,13.20
2023-04-19T18:02:00,pth,7.20
2023-04-19T18:03:00,pth,7.20
2023-04-19T18:05:00,pth,14.40
2023-04-19T18:07:00,pth,16.80
2023-04-19T18:09:00,pth,16.80
2023-04-19T18:10:00,pth,3.60
2023-04-19T18:12:00,pth,15.60
2023-04-19T18:14:00,pth,10.80
2023-04-19T18:15:00,pth,4.80
2023-04-19T18:17:00,pth,3.60
2023-04-19T18:19:00,pth,3.60
2023-04-19T18:20:00,pth,2.40
2023-04-19T18:22:00,pth,8.40
2023-04-19T18:24:00,pth,13.20
2023-04-19T18:26:00,pth,14.40
2023-04-19T18:28:00,pth,15.60
2023-04-19T18:29:00,pth,7.20
2023-04-19T18:31:00,pth,14.40
2023-04-19T18:33:00,pth,13.20
2023-04-19T18:35:00,pth,14.40
2023-04-19T18:36:00,pth,8.40
2023-04-19T18:38:00,pth,15.60
2023-04-19T18:40:00,pth,15.60
2023-04-19T18:41:00,pth,8.40
2023-04-19T18:42:00,pth,7.20
2023-04-19T18:43:00,pth,8.40
2023-04-19T18:45:00,pth,14.40
2023-04-19T18:47:00,pth,10.80
2023-04-19T18:48:00,pth,7.20
2023-04-19T18:50:00,pth,9.60
2023-04-19T18:52:00,pth,9.60
2023-04-19T18:53:00,pth,6.00
2023-04-19T18:55:00,pth,9.60
2023-04-19T18:57:00,pth,13.20
2023-04-19T18:58:00,pth,3.60
2023-04-19T19:00:00,pth,12.00
2023-04-19T19:01:00,pth,4.80
2023-04-19T19:03:00,pth,7.20
2023-04-19T19:04:00,pth,3.60
2023-04-19T19:05:00,pth,2.40
2023-04-19T19:07:00,pth,6.00
2023-04-19T19:09:00,pth,6.00
2023-04-19T19:11:00,pth,4.80
2023-04-19T19:13:00,pth,3.60
2023-04-19T19:14:00,pth,1.20
2023-04-19T19:16:00,pth,4.80
2023-04-19T19:18:00,pth,3.60
2023-04-19T19:20:00,pth,3.60
2023-04-19T19:22:00,pth,4.80
2023-04-19T19:23:00,pth,4.80
2023-04-19T19:24:00,pth,3.60
2023-04-19T19:26:00,pth,3.60
2023-04-19T19:28:00,pth,2.40
2023-04-19T19:30:00,pth,3.60
2023-04-19T19:32:00,pth,4.80
2023-04-19T19:34:00,pth,6.00
2023-04-19T19:35:00,pth,2.40
2023-04-19T19:37:00,pth,4.80
2023-04-19T19:39:00,pth,6.00
2023-04-19T19:40:00,pth,1.20
2023-04-19T19:42:00,pth,3.60
2023-04-19T19:44:00,pth,4.80
2023-04-19T19:46:00,pth,3.60
2023-04-19T19:48:00,pth,3.60
2023-04-19T19:49:00,pth,1.20
2023-04-19T19:51:00,pth,4.80
2023-04-19T19:53:00,pth,3.60
2023-04-19T19:55:00,pth,3.60
2023-04-19T19:57:00,pth,3.60
2023-04-19T19:58:00,pth,2.40
2023-04-19T20:00:00,pth,4.80
2023-04-19T20:02:00,pth,6.00
2023-04-19T20:03:00,pth,2.40
2023-04-19T20:05:00,pth,4.80
2023-04-19T20:07:00,pth,6.00
2023-04-19T20:09:00,pth,3.60
2023-04-19T20:11:00,pth,3.60
2023-04-19T20:13:00,pth,3.60
2023-04-19T20:14:00,pth,2.40
2023-04-19T20:16:00,pth,3.60
2023-04-19T20:18:00,pth,4.80
2023-04-19T20:20:00,pth,3.60
2023-04-19T20:21:00,pth,1.20
2023-04-19T20:23:00,pth,4.80
2023-04-19T20:24:00,pth,1.20
2023-04-19T20:26:00,pth,4.80
2023-04-19T20:27:00,pth,2.40
2023-04-19T20:29:00,pth,6.00
2023-04-19T20:30:00,pth,3.60
2023-04-19T20:31:00,pth,2.40
2023-04-19T20:33:00,pth,6.00
2023-04-19T20:35:00,pth,6.00
2023-04-19T20:37:00,pth,3.60
2023-04-19T20:39:00,pth,3.60
2023-04-19T20:40:00,pth,1.20
2023-04-19T20:42:00,pth,4.80
2023-04-19T20:44:00,pth,3.60
2023-04-19T20:45:00,pth,1.20
2023-04-19T20:47:00,pth,4.80
2023-04-19T20:49:00,pth,2.40
2023-04-19T20:51:00,pth,3.60
2023-04-19T20:52:00,pth,2.40
2023-04-19T20:53:00,pth,2.40
2023-04-19T20:55:00,pth,4.80
2023-04-19T20:56:00,pth,3.60
2023-04-19T20:58:00,pth,6.00
2023-04-19T21:00:00,pth,6.00
2023-04-19T21:02:00,pth,4.80
2023-04-19T21:03:00,pth,1.20
2023-04-19T21:05:00,pth,3.60
2023-04-19T21:07:00,pth,3.60
2023-04-19T21:09:00,pth,2.40
2023-04-19T21:11:00,pth,2.40
2023-04-19T21:12:00,pth,2.40
2023-04-19T21:14:00,pth,2.40
2023-04-19T21:15:00,pth,2.40
2023-04-19T21:17:00,pth,2.40
2023-04-19T21:19:00,pth,3.60
2023-04-19T21:21:00,pth,6.00
2023-04-19T21:23:00,pth,4.80
2023-04-19T21:24:00,pth,2.40
2023-04-19T21:26:00,pth,4.80
2023-04-19T21:27:00,pth,2.40
2023-04-19T21:29:00,pth,3.60
2023-04-19T21:31:00,pth,3.60
2023-04-19T21:32:00,pth,1.20
2023-04-19T21:34:00,pth,3.60
2023-04-19T21:36:00,pth,2.40
2023-04-19T21:39:00,pth,4.80
2023-04-19T21:41:00,pth,2.40
2023-04-19T21:43:00,pth,3.60
2023-04-19T21:45:00,pth,3.60
2023-04-19T21:46:00,pth,2.40
2023-04-19T21:48:00,pth,4.80
2023-04-19T21:50:00,pth,4.80
2023-04-19T21:52:00,pth,6.00
2023-04-19T21:54:00,pth,4.80
2023-04-19T21:55:00,pth,2.40
2023-04-19T21:57:00,pth,3.60
2023-04-19T21:59:00,pth,3.60
2023-04-19T22:01:00,pth,6.00
2023-04-19T22:03:00,pth,4.80
2023-04-19T22:05:00,pth,3.60
2023-04-19T22:06:00,pth,1.20
2023-04-19T22:08:00,pth,4.80
2023-04-19T22:10:00,pth,3.60
2023-04-19T22:12:00,pth,4.80
2023-04-19T22:14:00,pth,4.80
2023-04-19T22:16:00,pth,3.60
2023-04-19T22:17:00,pth,2.40
2023-04-19T22:18:00,pth,2.40
2023-04-19T22:20:00,pth,6.00
2023-04-19T22:21:00,pth,2.40
2023-04-19T22:22:00,pth,1.20
2023-04-19T22:24:00,pth,3.60
2023-04-19T22:25:00,pth,1.20
2023-04-19T22:27:00,pth,12.00
2023-04-19T22:29:00,pth,14.40
2023-04-19T22:31:00,pth,13.20
2023-04-19T22:33:00,pth,14.40
2023-04-19T22:35:00,pth,14.40
2023-04-19T22:37:00,pth,13.20
2023-04-19T22:38:00,pth,8.40
2023-04-19T22:39:00,pth,7.20
2023-04-19T22:41:00,pth,15.60
2023-04-19T22:42:00,pth,8.40
2023-04-19T22:44:00,pth,14.40